Theta_e
304 304 304 303 304 304 304 304 305 304 304 302 300 303 297 295 292 303 309 307 303 296 288 290 289 288 291 295 294 295 294 293 295 293 295 293 295 293 293 293 292 295 293 292 292 294 291 293 291 294 295 295 298 300 301 302 301 301 299 300 302 305 295 292 293 296 297 299 300 300 301 300 298 298 299 298 296 297 296 295 297 293 294 292 291 288 296
303 303 303 303 303 304 303 304 304 304 304 301 302 298 295 296 295 299 305 307 302 293 283 284 286 290 293 292 291 295 292 292 292 292 294 293 293 293 294 295 296 294 297 295 292 295 288 293 293 293 296 295 301 301 300 302 300 299 298 296 303 293 297 294 289 289 291 293 296 296 299 299 296 296 298 299 299 299 300 300 302 292 294 294 291 286 295
303 303 303 303 303 303 304 304 304 304 304 304 301 294 297 296 298 298 300 304 299 288 291 287 286 287 287 288 286 288 291 294 294 294 294 297 297 296 294 296 297 295 297 294 295 296 294 291 295 296 296 297 301 301 301 303 301 301 303 306 303 296 296 294 287 284 281 281 283 285 288 292 296 298 297 298 298 298 297 292 294 289 295 295 291 290 302
302 302 302 302 303 303 303 303 304 304 304 304 301 299 295 292 286 295 296 298 297 295 296 293 289 286 287 285 287 289 288 294 297 296 295 298 298 298 298 298 298 296 294 293 293 294 297 294 293 294 294 297 299 301 302 301 301 305 311 307 303 297 300 297 294 290 288 290 293 297 297 295 292 295 297 297 298 299 300 298 292 290 293 292 296 296 299
301 302 302 302 302 303 303 303 303 303 303 304 300 299 296 297 289 289 287 294 294 292 295 291 291 286 290 284 289 287 291 293 295 299 291 298 297 297 297 297 294 294 294 293 293 294 294 296 295 294 295 297 299 302 302 302 303 313 306 309 302 298 294 296 298 297 296 296 295 297 297 294 295 295 295 297 297 298 299 293 292 298 294 289 299 303 302
301 301 302 302 302 302 303 303 303 303 303 303 303 294 299 288 294 297 296 289 286 288 289 293 290 291 290 287 291 289 290 292 290 293 298 300 300 294 296 296 297 296 294 294 290 293 293 294 291 296 296 296 298 298 301 300 307 303 302 304 301 297 291 297 298 296 298 298 298 298 297 297 296 296 296 296 297 298 296 298 299 300 292 291 301 303 302
300 301 301 301 301 302 302 303 303 303 302 303 302 293 298 299 297 296 300 290 293 293 293 294 293 290 289 287 289 288 292 292 296 295 294 297 297 298 289 293 295 296 297 296 293 293 290 289 296 295 295 295 296 295 297 300 304 301 300 301 305 299 293 298 297 296 296 298 298 299 297 296 296 296 297 297 298 297 298 298 299 299 299 300 302 304 303
300 300 301 301 301 301 302 302 303 303 302 304 302 299 293 291 290 290 296 295 293 293 293 293 293 289 292 286 290 289 292 294 293 297 294 290 295 298 295 295 296 296 296 296 293 295 296 295 291 298 298 297 297 296 297 296 300 300 299 299 303 297 292 298 298 294 295 297 298 299 298 297 295 296 297 298 298 298 298 298 300 301 300 302 302 301 300
300 300 301 301 301 301 302 302 303 302 303 301 299 298 302 299 301 299 290 287 292 295 294 293 292 290 292 288 293 294 296 296 298 298 301 297 295 298 296 296 297 297 297 295 295 298 298 299 300 301 299 294 299 296 296 300 297 298 298 299 302 299 293 299 298 290 292 297 297 297 298 297 296 296 296 296 297 297 299 296 301 298 297 300 301 298 297
299 299 300 301 301 301 302 302 302 302 302 299 298 296 302 302 305 304 295 286 291 289 293 294 294 288 295 295 296 297 297 299 299 293 299 301 302 301 301 300 299 299 296 296 301 305 300 301 301 302 302 303 301 302 301 300 298 297 298 301 297 298 296 292 293 290 290 295 297 297 297 296 292 293 297 298 299 299 300 300 302 303 304 297 293 295 304
299 299 300 300 301 301 301 302 302 302 301 297 296 295 299 298 298 298 296 286 289 293 293 294 294 295 297 298 298 298 298 298 300 294 291 300 301 303 302 301 299 299 298 302 307 308 306 304 304 304 303 302 301 302 301 302 301 299 299 299 299 299 298 293 297 289 290 296 296 297 292 285 287 301 304 303 300 299 297 298 301 303 303 300 302 302 306
299 299 299 300 300 300 301 301 302 302 301 300 300 297 301 303 303 300 293 287 288 296 293 290 295 296 296 298 298 296 297 296 299 302 297 300 304 305 303 302 303 294 305 309 308 307 307 306 304 304 303 302 301 302 302 300 301 302 302 299 298 297 296 294 297 290 289 294 295 288 284 286 304 305 305 304 303 302 303 303 302 302 302 304 302 302 303
298 299 299 299 300 300 300 301 301 302 302 301 300 297 302 305 303 299 296 292 289 293 292 294 300 298 298 298 299 299 300 301 303 304 303 302 302 302 303 303 302 303 310 306 307 305 300 298 298 299 299 299 300 300 300 300 300 302 302 302 300 294 294 294 293 292 292 290 289 282 285 301 305 305 307 310 306 304 303 301 304 305 303 304 302 303 303
298 298 299 299 300 300 300 301 301 302 302 302 299 300 303 303 301 299 297 291 290 296 297 297 299 298 298 298 299 300 302 301 302 304 302 305 303 302 305 305 307 310 309 310 305 302 296 297 292 293 294 296 296 295 298 300 301 300 301 301 302 300 298 295 291 295 287 289 289 288 298 299 302 299 302 303 300 301 299 292 298 307 307 305 303 304 304
298 298 298 299 299 300 300 300 301 301 302 302 301 302 303 305 307 302 301 298 290 294 297 292 297 299 299 299 300 299 300 300 299 298 304 306 305 305 307 307 310 310 311 305 300 300 295 292 289 288 290 289 285 288 295 294 299 301 301 302 301 302 295 297 292 289 293 289 287 288 288 285 294 302 305 308 309 308 308 301 298 307 306 307 306 305 305
298 298 298 298 299 299 300 300 300 301 301 301 301 301 303 308 309 306 302 297 295 289 295 301 303 299 299 301 301 298 296 296 297 300 301 302 302 305 307 309 310 311 308 304 301 296 293 289 288 288 286 288 292 291 288 295 293 299 301 302 301 301 301 299 293 290 290 289 286 286 285 288 298 302 305 308 307 308 309 300 293 303 306 306 306 305 307
298 298 298 298 299 299 300 300 300 301 301 301 299 300 301 308 308 304 301 300 298 293 302 303 304 303 300 301 302 302 302 296 302 292 293 297 301 303 305 309 312 311 307 303 300 296 292 290 293 292 293 294 290 288 294 293 291 293 298 300 298 297 296 293 291 288 290 289 287 286 289 290 301 305 305 305 307 310 303 288 289 304 307 306 306 306 307
298 298 298 298 298 299 299 300 300 300 301 302 300 299 301 308 311 307 302 300 296 297 303 305 302 299 297 299 300 303 304 303 302 303 300 301 302 303 303 305 304 308 309 299 298 293 291 290 288 289 288 296 297 295 287 293 290 290 291 294 293 293 292 293 289 289 289 288 289 290 290 300 308 306 308 308 313 305 291 286 293 310 313 310 308 307 308
298 298 298 298 298 299 299 300 300 300 301 301 301 301 303 307 307 308 303 300 299 294 302 306 306 303 305 307 304 305 304 305 302 296 296 296 301 306 305 305 306 297 304 298 299 293 291 291 296 294 290 293 297 289 296 291 290 295 295 292 293 292 292 292 292 289 288 290 288 288 291 304 309 310 309 311 305 291 290 308 310 312 312 311 311 310 310
298 298 298 298 298 298 299 300 300 300 301 301 300 297 300 304 307 310 303 298 299 297 301 304 303 301 305 304 301 300 301 301 301 301 297 294 305 307 301 295 303 304 299 302 293 297 291 290 293 296 292 293 295 298 293 294 298 294 294 297 292 293 289 289 289 291 292 290 288 287 284 299 312 308 306 309 295 296 308 312 313 314 313 312 312 312 312
298 298 298 298 298 298 299 299 300 300 300 301 300 298 298 306 309 309 309 304 299 295 299 306 307 306 307 307 307 304 302 299 300 299 303 305 306 303 290 291 298 300 295 296 291 292 294 292 296 293 297 296 297 297 291 292 295 300 298 296 295 300 290 290 291 296 289 288 286 287 298 305 313 307 298 304 311 314 315 313 310 312 313 313 312 314 316
298 298 298 298 298 299 299 299 300 300 300 300 300 299 297 303 305 307 308 307 301 297 301 306 309 309 311 313 310 309 307 305 307 307 304 301 307 304 302 302 304 303 303 305 299 296 301 299 300 294 294 296 299 294 297 291 289 295 303 299 289 300 295 300 292 298 292 291 295 304 311 310 311 312 311 313 315 315 317 315 314 312 311 315 314 317 318
298 298 298 298 298 298 298 299 299 300 300 300 300 298 296 299 302 307 307 303 307 307 309 309 311 311 313 313 312 310 310 312 310 310 309 305 300 308 306 306 304 310 308 307 301 301 303 303 293 300 299 298 295 294 298 296 292 296 293 301 300 305 305 310 304 298 303 305 307 309 308 310 312 314 315 314 313 315 316 315 313 314 315 316 316 317 319
299 298 298 298 298 298 298 298 299 299 300 300 299 298 297 300 302 304 305 304 301 298 304 309 305 298 300 301 306 310 309 308 309 312 316 314 301 300 307 306 307 310 307 308 310 303 303 300 300 302 294 299 300 294 291 290 291 301 298 296 300 304 305 303 298 302 297 292 306 305 305 310 312 311 314 316 314 314 315 316 316 316 317 317 319 319 319
299 298 298 298 298 298 298 298 299 299 299 300 299 300 301 301 304 305 301 294 296 298 294 299 302 305 307 308 309 306 306 309 311 311 310 313 309 302 300 305 309 306 305 309 312 307 302 296 299 298 292 304 303 293 299 294 294 303 293 297 299 298 307 301 301 299 294 295 305 310 309 311 311 310 309 309 312 313 315 316 316 316 318 319 319 320 318
299 298 298 298 298 298 298 298 299 299 299 300 300 298 297 299 303 306 306 306 306 304 295 295 301 308 309 306 304 305 308 307 308 308 308 308 308 309 308 309 309 314 312 312 309 302 298 297 298 297 296 295 307 297 297 301 300 304 298 297 302 304 304 295 300 298 300 302 308 309 308 308 308 309 311 312 312 313 313 314 313 314 315 314 316 319 318
299 298 298 298 298 298 298 298 299 299 299 300 299 300 300 301 305 304 304 305 300 296 298 295 300 304 307 304 308 309 308 307 307 307 307 308 307 308 308 308 308 307 308 308 308 302 299 297 297 296 300 300 304 303 303 302 300 295 296 302 306 302 299 303 300 294 294 296 302 304 297 295 305 309 310 312 313 314 313 313 312 312 313 314 314 316 318
298 298 298 298 298 298 298 298 299 299 299 300 300 300 302 302 305 307 310 310 304 295 295 296 299 303 307 305 309 307 307 306 306 305 306 306 307 307 307 307 307 305 306 304 298 298 297 296 300 297 297 306 301 296 303 305 305 301 300 302 307 304 303 301 297 297 296 303 306 308 308 306 309 311 312 313 314 313 313 311 311 312 313 314 314 314 314
298 298 298 298 298 298 298 299 299 299 299 299 300 300 303 307 309 310 311 313 310 304 300 300 303 303 296 300 306 305 307 308 307 306 306 305 306 307 305 307 305 305 306 303 299 297 297 298 298 300 299 307 304 297 300 293 294 292 300 305 307 307 308 307 307 307 306 308 308 310 308 305 308 311 313 312 315 313 312 313 313 313 314 314 314 314 313
298 298 298 298 298 298 298 298 299 299 299 299 298 300 299 304 310 311 311 311 310 307 298 295 292 294 306 305 305 305 303 305 306 305 305 304 305 306 305 305 305 305 306 300 300 296 298 298 297 306 310 310 301 298 295 297 296 300 304 306 306 307 307 309 310 308 306 310 310 309 310 311 312 312 312 314 313 313 313 313 314 314 314 315 313 314 314
298 298 298 298 298 298 298 299 299 299 299 299 298 293 294 294 304 310 306 307 309 305 299 299 295 301 300 306 306 303 303 303 305 304 304 305 304 304 306 307 305 304 299 300 299 298 298 297 297 302 307 307 300 296 296 297 294 297 304 306 305 306 307 308 310 311 311 311 310 310 309 310 311 309 310 311 312 312 313 313 313 310 312 313 314 314 314
298 298 298 298 298 298 299 299 300 300 299 297 294 295 300 302 304 305 304 305 306 303 298 295 294 294 294 297 304 307 304 303 303 304 304 306 303 306 307 303 303 307 300 298 299 298 297 298 296 302 304 304 301 297 298 296 293 296 303 304 306 307 307 307 309 309 310 310 309 306 305 308 308 309 308 311 312 313 313 313 313 313 311 312 313 314 314
298 298 298 298 298 299 299 300 300 300 298 300 302 301 301 301 302 302 303 305 304 302 305 298 292 293 291 297 303 304 304 304 303 305 303 306 303 302 299 305 304 302 306 299 296 294 302 297 297 297 305 308 297 296 297 294 297 303 304 306 306 306 307 308 308 309 308 309 308 306 305 306 308 310 311 311 311 312 311 311 311 311 310 310 311 311 312
298 298 298 298 299 299 300 300 301 300 301 299 296 300 305 304 304 303 308 306 302 303 299 294 290 290 291 302 296 303 305 299 300 303 296 304 306 302 298 302 304 296 301 296 298 299 299 296 296 296 302 296 300 295 291 297 302 303 305 306 307 306 306 307 306 306 308 308 308 310 311 311 309 309 309 310 310 312 311 311 311 309 309 310 310 310 311
297 298 298 299 300 301 301 301 301 299 297 299 300 307 306 301 303 305 304 303 296 294 293 292 292 289 290 292 291 299 305 300 298 300 295 300 305 299 301 295 298 293 295 304 296 295 295 296 302 295 294 301 295 291 292 297 299 301 303 304 306 305 305 303 304 307 308 309 308 308 308 308 306 306 307 308 309 308 309 309 310 309 308 308 309 309 310
297 298 299 300 300 301 302 303 301 300 299 300 304 305 302 304 304 309 309 309 304 299 296 294 294 292 293 288 289 295 303 298 301 302 300 296 299 302 299 296 291 296 304 296 292 298 292 302 297 291 294 292 291 294 297 300 301 302 303 303 305 304 304 304 305 307 308 308 309 308 307 306 305 306 307 307 307 307 308 307 308 308 308 308 308 309 309
298 299 300 300 302 303 300 300 305 304 306 305 304 305 303 304 307 307 308 306 307 308 298 292 290 293 296 292 295 295 301 291 301 296 300 295 293 296 296 293 291 295 293 294 293 292 297 303 296 291 291 290 293 300 301 301 301 301 303 305 306 306 305 306 307 308 307 306 306 306 305 304 304 306 305 306 306 306 305 305 306 307 306 307 307 307 308
299 300 300 301 301 296 295 297 304 305 303 303 304 302 304 299 294 297 299 297 301 301 296 296 290 294 298 296 291 302 300 295 301 294 294 297 293 291 293 292 293 292 287 291 294 303 296 293 291 290 290 297 300 300 300 301 301 303 303 303 305 307 306 307 308 306 304 303 302 303 302 303 303 305 305 305 306 305 305 306 307 308 308 307 308 307 307
299 301 300 299 298 293 295 302 308 304 305 305 304 297 295 297 294 291 293 296 295 294 298 296 292 295 294 294 296 305 300 294 294 296 291 297 292 289 292 288 291 292 289 289 294 302 291 291 291 290 289 295 296 300 302 302 301 300 302 303 305 306 307 307 308 306 304 303 304 305 305 303 303 304 305 304 305 306 307 306 307 307 308 308 307 307 307
298 293 291 293 293 295 301 305 304 303 305 298 299 294 290 295 290 288 295 291 291 293 296 292 298 297 298 295 295 296 306 298 291 291 293 295 300 291 292 291 292 289 285 286 290 299 290 286 291 290 289 294 298 302 302 300 302 304 304 305 305 307 308 307 307 307 307 307 307 307 307 306 306 304 305 304 304 304 306 306 307 308 307 307 307 307 307
295 293 293 290 295 297 300 302 304 304 298 294 293 291 290 289 292 292 292 289 290 292 298 297 299 297 299 300 299 295 304 306 304 301 296 292 297 298 290 287 293 288 286 286 292 293 290 288 288 288 291 297 299 301 303 303 301 304 305 306 307 308 307 307 306 307 307 306 306 305 306 306 305 305 305 305 305 304 305 306 306 306 306 307 306 307 308
294 293 295 297 297 299 300 300 298 295 294 296 289 286 288 289 293 291 291 287 289 292 296 298 294 297 298 300 299 300 299 305 304 297 294 291 294 291 289 291 292 286 284 291 296 291 289 285 286 287 295 298 300 301 302 302 303 304 305 307 307 307 307 306 306 307 307 306 306 306 306 306 306 306 305 305 305 305 305 305 305 306 306 307 307 307 308
298 298 298 296 296 295 297 292 295 293 287 287 286 284 288 285 287 287 289 292 296 294 296 303 302 303 304 305 301 303 299 306 297 293 292 290 294 293 289 288 288 284 287 296 290 288 286 286 286 290 298 298 300 300 302 304 304 306 306 307 307 306 307 307 306 306 303 305 306 306 306 306 306 306 305 305 305 305 305 305 305 306 306 306 307 307 307
298 298 295 294 291 292 294 284 294 290 287 288 285 281 285 284 286 289 287 290 294 292 298 296 297 296 292 300 297 296 297 299 297 296 294 295 292 288 288 285 286 292 296 290 287 285 286 288 291 294 297 299 299 301 301 303 304 305 305 306 307 307 307 307 307 306 305 306 307 306 306 305 306 306 306 305 305 304 305 305 306 306 306 306 307 306 307
292 290 291 289 287 291 289 281 292 287 283 285 287 286 286 284 287 289 288 294 296 294 298 298 299 297 294 301 298 299 297 293 296 291 288 292 289 290 287 286 291 292 288 285 287 288 288 287 294 295 297 298 299 301 303 303 304 305 305 306 306 306 307 306 306 306 305 305 305 305 304 305 305 305 304 305 305 306 305 305 305 305 306 306 306 306 306
289 288 288 284 281 287 287 284 286 284 288 290 288 290 290 291 293 293 298 299 296 297 296 297 298 298 295 298 293 292 295 294 292 290 292 292 287 286 291 294 293 287 286 287 285 284 286 290 295 297 298 298 299 301 302 303 304 305 306 304 305 306 306 306 306 306 305 305 305 305 305 305 305 305 304 305 305 305 305 306 306 306 306 305 305 305 305
289 290 289 288 284 287 289 284 285 289 291 292 293 294 293 295 296 297 298 299 297 299 298 299 298 298 294 294 293 294 295 295 290 293 293 288 287 290 294 289 285 286 283 283 284 286 289 294 297 298 299 300 300 301 301 303 303 304 304 306 305 306 306 306 306 305 306 306 305 305 305 305 305 306 305 304 305 306 305 306 307 307 306 305 305 306 305
284 289 290 282 282 286 284 287 292 293 295 295 295 296 296 297 296 295 299 299 299 299 297 297 294 295 294 298 297 291 293 294 290 290 292 290 292 288 287 286 285 287 287 286 286 291 292 297 298 299 299 299 300 301 302 302 304 304 304 305 306 306 306 306 306 305 306 306 305 305 305 305 305 305 305 305 305 305 306 306 306 306 306 306 306 305 305
289 287 285 285 287 288 289 292 292 289 293 295 295 296 295 295 293 296 299 299 298 298 299 297 294 294 290 294 292 291 288 292 287 287 291 289 286 283 284 282 284 283 288 291 291 294 296 297 300 301 301 301 301 301 303 303 304 304 304 305 306 306 307 307 307 307 306 306 306 305 305 305 305 305 305 305 304 305 306 306 307 306 306 305 305 304 305
287 286 287 285 286 288 291 292 291 289 292 293 294 293 295 295 295 297 299 298 298 297 298 296 296 292 291 291 288 289 289 292 290 290 288 286 286 287 286 283 285 286 288 294 294 296 299 300 301 301 301 301 300 302 302 303 302 303 305 306 306 306 307 307 306 307 307 307 306 306 306 305 305 304 304 304 305 306 306 306 306 305 306 306 306 305 304
289 286 287 291 286 286 289 286 286 287 288 291 293 293 294 293 294 294 298 298 297 295 293 290 292 290 288 287 287 285 287 292 289 288 287 287 290 288 286 285 288 292 294 297 298 298 299 301 300 301 302 303 302 302 303 304 304 304 305 306 306 306 306 307 306 307 307 307 307 301 306 305 305 306 306 306 305 305 305 304 305 306 306 306 306 305 305
286 284 284 288 290 289 289 290 291 292 293 294 293 294 294 293 295 297 299 297 296 291 289 292 291 289 286 285 287 290 292 290 287 288 286 289 291 288 288 290 293 296 297 297 298 299 299 301 302 302 302 301 301 303 303 304 304 304 305 305 306 306 306 306 306 307 307 307 307 307 307 307 306 306 306 305 304 304 303 303 304 305 305 305 305 306 306
Wind_Speed
22 23 22 23 23 24 23 22 22 20 21 11 8 8 6 4 5 1 2 2 5 3 6 7 6 8 8 10 12 10 10 10 10 11 9 10 11 10 10 11 10 13 11 13 16 17 11 16 14 12 15 16 15 16 25 21 20 18 10 16 7 5 8 10 10 11 9 13 15 18 19 13 14 15 12 9 10 13 9 8 5 6 8 8 5 4 4
22 23 23 23 23 23 23 23 23 21 17 11 9 6 5 4 6 1 2 5 4 4 6 5 6 5 7 8 11 8 9 10 12 11 11 8 5 10 8 9 15 11 13 13 14 15 7 15 16 11 14 12 17 21 25 21 16 16 9 8 8 5 6 9 9 9 11 12 13 16 17 13 10 10 12 12 10 11 10 8 6 5 10 11 7 6 4
23 23 22 22 24 24 22 24 23 21 18 15 8 6 4 6 4 6 5 6 5 5 4 6 6 7 8 9 10 9 7 10 14 13 10 9 9 7 9 12 10 13 16 13 12 15 10 9 13 9 13 9 16 21 25 24 16 15 14 10 9 8 8 8 11 13 13 13 15 16 16 16 9 12 15 16 16 14 12 8 7 4 5 14 6 1 7
22 22 23 23 24 24 23 20 20 20 19 18 9 5 4 2 4 2 3 6 6 7 7 8 7 9 11 10 10 8 9 9 12 14 12 10 8 9 10 11 15 11 10 13 13 13 12 10 8 10 10 11 10 13 19 19 17 17 16 11 7 3 6 9 9 11 11 11 8 8 10 11 13 13 13 16 17 17 11 6 4 6 5 6 7 3 8
22 23 23 24 24 24 24 23 21 20 20 19 9 4 3 4 4 2 1 3 8 9 6 6 6 4 3 4 5 4 8 5 7 12 3 7 8 8 11 11 10 10 13 8 11 13 11 8 9 9 10 10 9 17 19 19 17 11 7 6 5 5 6 11 13 14 11 11 13 15 17 16 16 13 13 14 18 15 9 5 6 8 6 7 4 14 8
22 22 22 23 24 24 24 24 23 23 22 22 6 4 3 3 0 3 1 4 3 4 6 10 10 10 4 4 4 8 8 3 5 5 9 8 8 4 6 13 11 11 11 11 7 11 9 12 7 10 13 12 13 16 16 19 10 9 11 12 5 7 4 10 10 10 13 17 19 15 11 14 16 18 12 12 14 15 12 7 10 10 6 6 10 11 9
22 22 22 22 23 24 24 25 24 24 26 20 4 4 2 3 4 5 1 3 5 8 11 13 9 8 5 3 4 6 7 8 7 6 7 7 5 10 4 9 8 8 9 6 6 8 5 8 11 11 11 13 13 12 16 17 12 15 11 11 3 4 7 10 11 11 15 10 6 8 17 15 15 17 14 13 11 12 13 11 10 9 8 8 5 12 10
22 23 22 22 23 23 24 25 24 23 27 17 6 1 2 3 5 4 5 6 10 11 9 8 8 6 7 4 8 3 6 5 2 2 5 3 7 10 9 8 10 8 9 9 7 12 11 11 8 11 12 12 12 11 13 13 15 16 13 10 8 6 4 10 12 11 9 7 11 6 10 18 15 14 16 15 14 12 15 14 11 9 9 6 8 6 6
22 23 23 22 23 23 23 23 23 22 22 8 7 5 0 4 3 4 8 9 5 6 7 7 6 2 4 6 6 9 5 5 4 2 3 5 5 5 6 5 10 8 13 10 11 15 13 12 11 12 11 9 14 8 10 14 14 18 12 10 7 3 3 7 6 2 6 4 2 9 13 20 15 16 17 17 15 12 8 8 7 9 8 6 7 7 5
22 23 23 22 22 23 22 23 22 21 20 7 7 5 5 6 3 1 2 4 3 5 7 9 5 1 2 3 5 4 4 3 3 1 3 4 5 6 6 7 6 14 10 9 5 13 4 10 11 14 11 8 12 12 13 15 14 14 12 9 7 7 5 5 6 7 5 6 8 8 5 3 10 10 13 15 11 10 9 11 10 9 7 7 4 8 3
22 22 23 23 23 22 22 21 21 19 14 10 7 8 8 8 9 4 2 4 3 3 7 7 4 2 5 3 3 1 0 2 2 2 1 4 6 7 5 5 7 8 3 4 8 12 9 8 8 5 9 12 12 11 14 18 15 13 11 9 7 11 7 6 8 6 6 11 9 2 2 5 4 1 6 9 11 16 13 11 10 9 8 6 7 7 6
22 22 22 23 22 22 22 21 21 19 15 11 8 9 9 8 8 4 3 3 7 5 6 5 8 8 8 6 3 1 1 1 2 3 4 3 6 4 6 9 6 3 6 5 6 8 3 5 10 13 13 10 12 14 17 16 14 13 12 11 9 11 8 5 6 4 5 8 8 4 7 5 6 5 5 8 9 7 6 8 12 14 15 11 11 11 12
22 22 22 22 23 22 22 21 21 20 18 13 10 9 11 10 6 7 6 6 5 8 6 5 7 1 2 7 5 1 1 3 5 5 7 6 5 8 9 6 2 3 16 4 5 7 6 6 11 9 12 14 16 15 16 17 16 14 10 13 8 5 6 4 4 4 3 5 6 6 6 5 5 6 5 8 8 7 5 8 7 7 11 12 13 12 13
22 22 22 22 22 23 22 22 22 21 20 17 12 10 11 10 7 7 5 4 9 10 12 8 5 10 7 5 7 4 2 2 3 3 4 5 4 5 4 4 6 9 8 2 6 5 1 5 6 8 10 9 10 11 12 12 14 17 17 14 8 9 8 5 4 7 6 5 7 6 8 7 6 3 5 4 8 8 6 2 7 6 6 8 10 12 12
22 22 22 22 22 22 23 22 21 22 20 20 12 11 10 10 5 5 6 6 8 13 11 4 4 7 8 8 4 6 5 5 6 5 8 4 6 4 1 1 0 4 2 6 5 5 3 2 4 5 7 6 6 7 12 10 12 15 13 13 12 10 10 6 5 3 5 7 7 6 6 6 5 8 6 7 7 5 5 6 6 7 12 10 9 9 11
22 22 22 22 22 22 23 22 22 22 21 23 13 10 10 9 4 7 6 7 6 8 7 14 7 5 3 2 4 5 3 3 2 4 4 4 4 4 1 2 1 4 5 7 6 5 3 3 3 4 5 6 5 7 7 10 9 11 10 11 12 12 10 7 5 2 4 5 6 5 5 4 5 13 10 11 5 5 3 5 10 7 10 11 12 13 12
21 22 22 22 22 22 22 22 22 22 21 21 14 12 11 10 10 9 8 5 5 9 17 14 10 4 3 4 1 2 2 1 1 2 2 2 3 3 2 3 3 4 3 6 5 4 4 4 6 6 5 8 7 4 9 9 10 12 14 12 11 10 7 5 7 5 4 4 4 5 2 1 8 3 13 11 8 3 4 7 6 5 10 13 13 14 12
21 22 22 22 22 22 22 22 22 22 21 19 14 12 13 13 7 8 6 7 8 12 9 12 16 9 10 8 3 6 4 3 3 5 4 3 3 3 3 2 4 3 8 1 4 4 4 3 6 5 6 8 6 7 5 7 7 6 10 8 10 8 6 5 6 7 5 6 5 3 1 1 3 7 7 7 3 6 6 8 1 5 9 8 13 13 12
20 21 22 22 22 22 22 22 22 22 21 21 15 12 8 9 12 10 6 8 8 7 15 20 14 11 11 9 8 7 7 6 4 3 3 1 2 4 3 5 5 2 5 1 4 4 5 5 6 6 5 8 8 6 7 7 7 9 9 9 7 5 5 7 6 6 7 6 7 5 2 5 6 6 8 6 6 4 7 1 4 6 5 2 3 8 9
21 21 22 22 21 22 22 22 22 21 21 21 14 10 13 16 12 6 7 10 7 11 16 16 11 15 11 11 10 9 7 8 5 3 1 4 6 6 4 3 4 7 5 4 4 5 4 6 6 2 4 7 5 3 7 6 8 10 9 10 6 6 3 4 5 4 5 4 6 5 8 2 7 10 8 6 4 1 2 2 1 4 4 3 3 3 4
21 21 22 22 21 22 22 22 22 21 21 20 17 11 12 10 11 10 9 9 9 10 9 9 16 16 14 12 10 10 11 9 8 7 6 2 4 3 2 1 5 3 0 3 3 1 1 2 4 1 2 2 1 1 4 6 8 11 11 11 10 11 6 5 4 5 5 5 5 1 3 6 5 8 2 6 3 2 3 4 2 3 3 1 1 2 2
20 20 21 22 21 21 21 22 21 21 21 20 19 11 10 9 10 10 9 8 8 8 10 18 18 17 17 15 9 5 7 9 8 7 6 5 6 7 5 2 3 2 3 2 3 2 6 5 4 3 2 3 3 3 6 4 5 1 7 3 7 12 5 3 2 7 5 2 3 5 3 6 6 3 5 4 3 2 4 5 6 5 4 7 2 4 6
20 20 21 22 22 21 21 21 21 21 21 20 16 9 11 13 11 11 11 10 9 10 12 15 15 16 16 15 11 3 4 5 6 6 7 5 2 4 3 5 3 3 5 2 4 2 2 2 4 3 2 3 1 2 4 3 1 5 1 5 6 6 4 4 1 3 4 6 8 6 7 5 6 3 3 3 2 4 4 6 4 6 4 2 3 3 5
21 20 21 21 22 22 21 21 22 21 21 19 15 11 12 11 13 12 9 8 8 8 9 8 9 3 7 7 7 1 3 5 6 3 2 3 3 2 1 5 5 4 4 3 3 5 2 3 1 2 2 2 5 4 1 3 3 10 6 4 4 4 1 2 3 3 1 3 7 4 5 8 6 5 1 3 0 3 2 5 6 5 5 4 4 5 5
21 21 21 22 22 22 22 21 21 21 21 21 18 12 11 12 9 8 9 6 5 6 7 8 10 8 7 2 6 4 5 4 4 2 1 3 3 5 6 7 7 5 6 7 5 5 2 3 2 3 0 3 4 0 5 3 2 8 2 4 4 5 3 4 6 5 4 2 6 6 5 4 6 3 2 4 2 3 4 5 4 5 4 6 6 5 6
20 21 21 22 23 23 22 22 22 21 21 22 20 13 10 11 11 11 9 8 8 7 6 6 9 11 11 9 9 8 3 4 5 5 2 4 2 2 4 5 6 4 6 5 5 3 3 3 1 1 4 1 7 2 2 2 3 3 3 2 2 2 1 2 3 6 5 5 7 1 4 2 1 4 2 1 2 4 4 3 3 3 5 4 2 2 6
21 21 21 21 23 23 22 22 22 20 21 22 15 12 11 12 10 9 8 7 8 4 2 5 9 13 12 14 13 8 6 1 3 4 6 3 5 2 3 5 6 6 5 4 3 3 2 3 3 2 1 1 4 1 2 2 1 1 2 2 5 4 5 2 5 4 3 2 4 5 3 0 2 4 2 2 4 2 3 1 1 1 2 4 4 4 5
22 22 22 22 23 23 22 22 21 21 21 22 16 13 12 11 10 8 7 6 6 5 7 8 10 13 17 17 11 9 6 6 6 6 6 8 3 2 3 5 5 6 5 3 3 3 2 2 4 4 3 4 4 1 1 5 3 4 5 4 9 4 5 3 1 1 2 3 6 4 6 3 3 2 2 2 3 3 1 1 1 2 2 3 4 5 5
21 22 23 22 22 23 22 22 22 20 22 20 13 14 12 11 10 10 4 3 5 7 7 9 11 11 7 9 10 12 8 6 4 4 4 6 7 4 6 3 4 4 5 3 2 3 3 2 3 2 2 3 3 1 2 1 4 1 5 5 1 4 5 6 3 5 5 3 3 4 4 5 4 3 3 1 2 1 1 1 2 1 2 3 2 4 4
22 22 22 23 22 23 22 22 21 20 21 14 11 8 6 5 5 8 9 4 5 6 4 5 6 3 9 9 11 8 9 6 3 4 6 4 6 5 7 4 3 3 3 3 3 3 2 3 1 1 4 2 3 1 2 2 0 3 1 4 4 2 3 4 2 0 2 3 3 2 3 4 6 5 3 3 2 2 3 2 2 2 1 3 2 3 3
24 24 23 23 23 22 23 22 21 21 19 10 7 3 3 3 3 5 11 8 7 5 4 4 7 7 8 8 8 6 7 7 2 4 6 6 5 5 6 2 5 6 3 2 2 3 1 3 2 2 1 4 1 2 4 4 1 2 3 1 2 1 3 6 3 3 3 3 4 3 4 4 1 3 5 2 3 1 2 3 4 6 8 2 1 3 2
25 25 24 23 22 22 22 23 22 18 11 9 8 5 4 4 5 10 13 11 8 6 5 5 5 3 4 5 5 3 5 6 5 5 5 4 7 5 4 4 4 4 3 3 3 3 2 2 1 4 2 3 1 3 5 5 2 3 1 4 2 0 5 4 4 2 2 1 1 2 5 5 3 4 4 4 3 3 2 3 2 2 1 2 1 3 2
24 24 23 23 24 24 23 22 22 15 10 13 20 25 26 26 23 20 14 9 7 6 5 4 5 4 3 5 9 8 4 4 6 4 5 4 5 4 3 2 3 4 4 1 2 3 2 0 0 3 3 4 1 2 4 4 2 6 5 2 2 1 3 5 3 2 2 3 1 3 5 4 4 4 4 1 2 2 2 3 4 3 4 5 4 4 3
25 24 26 25 24 25 25 23 20 19 16 11 9 8 5 8 9 6 4 4 5 5 3 3 3 4 6 6 10 1 3 6 7 7 3 6 3 2 3 4 3 2 4 4 1 3 1 1 3 2 3 2 2 2 3 5 3 5 4 5 2 1 1 2 2 3 3 5 3 4 6 5 3 2 2 3 3 2 2 1 3 3 4 4 4 3 4
26 26 26 27 26 24 25 24 13 7 6 6 8 1 4 1 3 4 4 5 4 3 3 4 3 5 6 5 6 4 2 5 5 2 4 3 3 5 2 3 3 1 1 2 3 3 4 3 1 1 4 3 2 2 3 6 8 10 8 3 4 0 1 1 2 2 5 4 2 3 2 3 3 4 4 3 4 2 2 2 2 4 6 5 3 4 3
27 28 27 26 28 21 11 8 7 5 6 5 2 4 2 2 4 4 5 6 5 5 3 3 3 6 6 6 3 2 2 5 4 3 4 3 3 1 4 3 4 2 3 3 3 4 4 4 0 3 1 2 3 4 2 1 5 9 6 2 3 1 0 1 2 3 4 3 3 3 1 1 1 3 3 2 1 2 1 2 2 3 4 4 7 4 4
28 28 28 25 12 5 6 4 6 4 3 3 3 7 7 6 4 4 5 5 6 5 5 3 5 7 6 5 2 3 5 5 3 4 3 3 1 2 3 1 2 1 2 2 2 4 4 2 3 3 3 4 3 3 6 4 7 7 6 4 2 2 1 3 0 1 5 4 3 2 2 2 2 2 1 2 3 1 1 3 3 3 4 3 2 7 5
28 28 13 7 5 4 3 1 3 3 6 8 4 3 4 3 2 3 3 4 4 5 4 5 8 8 7 7 6 3 4 3 0 4 2 1 2 2 1 2 1 0 3 3 2 3 2 1 1 3 4 7 5 7 4 5 4 3 2 3 2 2 2 2 4 3 3 3 5 4 2 2 2 2 2 2 2 1 0 1 1 2 3 3 7 6 5
22 10 7 5 5 2 3 4 1 4 6 3 4 2 3 2 3 2 3 3 2 5 5 7 8 8 8 8 8 4 6 5 5 4 2 3 2 1 2 3 2 2 3 3 2 2 4 3 2 3 5 7 7 5 4 4 2 1 2 3 3 2 1 2 3 3 3 3 4 2 2 1 2 4 7 2 2 1 2 1 1 2 2 3 2 5 4
7 8 5 6 4 5 9 6 7 10 4 2 2 2 2 3 3 3 3 3 4 4 3 5 8 9 9 9 6 4 3 6 4 3 3 1 2 3 2 2 3 1 2 4 1 2 3 3 3 4 6 4 7 5 4 3 1 3 1 2 1 1 2 0 2 1 2 3 1 3 4 2 2 4 6 1 2 1 1 2 1 2 5 1 4 5 5
7 7 6 4 8 8 8 11 9 5 3 3 2 3 2 3 4 2 2 5 4 3 5 8 6 7 8 8 7 5 3 2 4 4 3 3 1 3 1 2 1 3 2 3 2 2 1 3 3 3 4 8 6 5 4 4 4 2 2 1 1 2 2 1 0 1 1 1 2 1 3 2 2 0 1 5 4 1 3 5 4 2 0 7 3 3 6
8 8 8 10 11 11 10 6 3 2 2 3 2 3 2 3 2 3 3 4 4 3 6 7 7 6 4 6 6 6 3 2 3 2 2 4 1 1 2 2 1 2 2 2 3 2 1 3 3 4 5 6 6 2 4 4 4 3 3 4 3 2 1 1 2 2 2 1 3 4 1 4 3 1 1 2 2 2 5 3 1 2 3 5 3 6 5
22 18 12 8 5 3 2 3 3 2 2 2 3 3 3 2 3 5 4 3 3 5 0 2 3 1 1 2 2 2 1 2 3 3 3 3 3 1 2 3 1 3 3 1 1 2 2 3 3 4 7 6 5 4 3 4 4 4 5 3 3 2 1 2 3 2 2 4 2 1 3 3 1 3 1 3 0 3 1 2 2 3 3 4 4 6 6
10 8 6 3 3 3 2 4 3 2 3 2 3 4 3 4 3 4 3 4 5 7 4 5 5 6 4 6 5 2 2 3 1 2 3 2 0 1 1 3 4 1 3 3 3 3 3 2 7 3 7 4 4 4 5 3 4 5 4 4 2 3 2 3 2 4 4 3 3 3 4 2 3 2 3 1 1 1 2 2 3 3 4 3 5 7 6
5 3 2 2 2 2 1 2 3 2 4 4 4 5 4 6 5 7 8 2 5 5 1 4 1 4 4 5 2 2 1 2 4 2 2 3 3 2 3 3 2 0 1 3 2 3 2 3 5 3 5 6 4 4 4 3 4 4 4 4 4 3 3 3 3 2 3 4 3 3 3 3 2 2 2 1 2 1 3 3 3 3 4 4 5 5 6
3 3 3 3 3 3 3 2 2 4 4 3 5 7 9 9 6 2 5 5 4 2 3 4 5 3 5 4 2 2 3 3 3 3 3 2 2 3 3 4 0 2 2 3 3 4 3 6 2 6 6 5 5 3 4 3 3 3 5 4 4 4 4 3 2 3 5 3 3 3 2 2 3 3 3 2 2 3 3 4 4 4 5 5 6 5 6
3 2 2 2 5 4 3 4 4 3 4 7 8 8 9 5 1 3 4 5 4 3 3 2 5 4 4 2 3 2 3 1 3 3 3 4 4 3 1 2 1 2 3 3 3 4 5 4 7 9 6 4 3 2 3 4 2 3 3 4 4 5 4 4 4 4 3 5 2 2 2 4 3 3 2 3 3 3 2 4 5 4 4 5 6 6 7
4 3 3 4 4 2 6 5 7 9 7 6 5 5 5 6 4 4 4 2 3 1 4 2 4 3 5 2 3 3 3 3 3 3 2 3 0 3 2 2 2 3 3 3 4 5 8 3 6 8 6 3 1 1 3 4 2 2 2 4 4 4 5 4 4 4 3 4 5 4 2 2 4 4 4 3 3 4 4 4 5 5 5 5 6 6 6
2 2 3 3 3 4 5 6 7 9 6 5 6 5 5 4 7 3 3 3 3 4 2 4 3 2 3 1 4 3 4 2 3 2 3 2 2 3 1 2 2 4 4 5 6 6 5 10 7 6 5 4 3 1 1 3 4 2 2 2 4 4 4 5 4 4 4 3 4 4 4 3 3 4 3 3 4 4 4 4 5 5 4 5 6 7 7
2 3 3 5 5 7 9 10 9 6 4 5 4 6 5 8 4 4 3 5 2 6 3 3 2 3 3 2 3 3 4 3 4 2 2 4 3 3 2 4 4 5 4 6 5 2 3 7 7 6 5 4 2 2 2 2 3 1 2 1 2 3 4 4 4 4 4 4 4 4 4 5 4 4 5 4 4 4 5 5 5 5 5 6 6 7 7
2 2 4 6 8 8 8 6 4 3 5 6 5 6 5 6 6 6 4 4 3 3 3 4 3 3 3 3 3 3 3 2 3 4 4 4 3 4 5 5 4 5 5 5 3 5 5 4 4 5 3 3 4 2 2 2 2 2 2 3 3 3 4 4 4 4 4 5 4 3 3 5 4 3 4 3 5 6 5 4 4 5 6 6 6 6 7
3 4 5 6 10 12 11 10 10 8 6 7 4 5 5 4 4 2 5 4 4 4 4 3 3 3 3 4 3 3 2 1 4 3 5 4 2 4 4 4 5 4 4 5 2 1 3 5 5 4 3 3 2 2 4 3 3 1 2 3 3 3 4 4 4 5 5 5 5 4 4 2 3 4 3 4 4 5 6 6 6 6 6 5 6 6 6
Wind_Direction
349 350 349 347 346 346 347 348 345 346 346 345 345 320 299 276 275 224 330 164 162 180 258 263 265 253 264 290 283 286 279 281 289 286 270 259 233 252 249 258 258 258 259 211 193 187 181 187 193 185 182 180 193 178 201 199 193 200 185 194 158 75 179 188 190 181 181 199 193 198 223 204 206 213 229 225 215 204 222 215 184 184 218 231 175 201 131
351 350 349 348 348 347 347 347 346 345 347 342 326 296 292 295 294 185 159 187 181 207 247 255 241 254 267 268 271 275 268 274 275 264 258 242 227 226 245 250 238 263 252 231 197 178 186 195 194 186 184 180 196 183 205 199 187 198 163 206 128 188 181 183 172 184 188 195 195 192 207 220 210 211 200 223 233 200 227 221 195 232 220 228 229 219 130
349 350 349 347 345 348 348 347 345 343 342 342 330 301 311 303 262 254 180 169 153 203 230 251 269 274 284 291 283 276 267 242 243 248 245 227 243 253 243 251 228 221 249 196 197 187 205 176 198 201 178 178 198 181 200 189 184 200 169 209 159 210 171 209 192 184 182 187 192 186 187 201 208 218 194 205 227 219 185 217 196 229 229 230 228 85 99
348 349 350 347 345 346 346 344 342 342 340 340 331 318 301 248 303 133 178 184 203 240 259 272 257 273 283 283 262 247 253 255 225 217 242 248 239 245 265 265 253 278 227 187 197 188 201 197 165 206 171 173 196 177 186 187 189 185 164 187 157 223 181 215 201 197 194 198 180 163 183 187 216 206 210 188 223 244 237 199 224 219 220 231 224 164 146
347 349 350 349 346 345 347 346 340 340 337 339 329 291 238 314 267 306 279 186 222 243 221 221 225 241 267 265 347 292 271 215 159 199 235 236 237 254 246 256 252 249 219 205 180 177 190 164 160 216 156 176 208 186 188 191 194 80 130 193 164 230 205 220 235 215 199 169 198 185 190 197 205 214 206 205 204 232 234 176 201 217 236 231 184 129 143
347 349 349 349 349 346 346 347 345 341 337 337 313 282 221 256 226 278 309 291 279 255 242 230 231 238 232 279 300 283 307 185 166 173 218 250 221 259 243 244 238 257 188 187 171 175 189 158 176 206 177 183 198 169 181 195 133 123 180 193 196 186 231 226 219 213 201 193 203 179 181 205 195 211 203 212 204 202 230 244 214 187 215 251 132 133 139
347 347 349 349 350 349 346 346 348 343 337 334 286 312 295 261 309 290 347 264 290 301 307 303 284 261 208 262 245 276 254 206 188 190 199 189 239 216 254 247 222 259 182 152 148 174 189 176 168 197 187 186 160 177 173 193 161 192 192 200 190 206 226 214 204 215 241 216 169 171 190 204 211 199 201 208 211 201 211 236 239 226 218 240 183 156 168
346 346 348 349 350 350 350 349 348 346 339 326 304 23 309 352 347 318 333 281 285 285 286 274 270 249 221 224 229 238 244 210 64 274 147 221 215 209 250 260 264 222 171 158 184 195 195 186 174 197 188 163 168 181 191 165 174 183 194 186 159 256 203 218 189 214 223 202 177 216 270 208 199 200 203 209 211 211 204 213 219 219 244 219 235 214 215
346 346 346 349 351 351 351 351 349 346 342 338 356 315 224 305 251 302 315 310 273 277 276 267 267 231 207 214 241 192 181 131 183 172 278 213 216 229 262 263 316 255 169 180 214 179 188 190 182 165 205 175 178 179 190 189 173 188 179 196 136 210 246 188 206 212 241 215 105 266 267 193 201 203 203 208 210 215 200 212 201 215 215 207 218 226 212
346 345 345 347 350 350 351 352 351 351 341 348 335 317 341 293 244 195 316 283 300 306 291 289 259 283 291 285 345 340 70 37 329 241 296 297 284 281 291 302 306 304 209 187 50 331 220 191 167 188 173 174 170 185 186 189 177 181 178 173 191 206 217 180 191 200 180 199 251 237 2 163 204 203 193 196 211 217 206 215 214 216 217 203 203 221 180
345 344 344 346 348 350 351 351 350 353 351 356 337 311 309 316 329 313 194 273 266 292 320 326 350 270 252 311 316 31 275 85 6 317 277 272 261 237 268 282 278 295 312 25 323 326 283 162 157 168 171 189 179 178 184 194 167 182 186 171 202 211 227 193 186 210 188 173 206 206 191 203 208 299 284 266 214 191 207 207 207 206 202 230 215 225 253
345 344 343 344 345 347 349 350 351 352 351 344 326 296 288 291 301 289 286 299 299 304 337 320 333 23 13 11 26 16 27 295 285 325 301 312 313 275 255 258 254 297 304 321 332 295 278 262 165 188 175 178 172 184 189 188 166 189 185 178 194 203 218 230 170 210 212 187 162 203 225 227 84 333 260 251 269 269 223 226 209 204 202 215 225 214 234
344 343 342 342 343 345 347 349 349 349 348 342 329 301 300 295 300 323 311 310 294 309 319 297 297 141 276 311 313 57 292 284 273 280 280 276 242 216 227 227 135 278 283 276 273 269 220 217 171 176 159 177 179 171 187 174 172 189 187 184 195 187 198 231 182 212 210 203 182 199 212 88 67 34 352 353 313 274 276 249 239 240 206 194 213 219 227
344 342 341 341 342 343 345 347 348 347 347 343 328 309 298 295 328 332 329 318 304 297 303 283 337 27 27 323 351 3 346 27 350 268 283 240 272 236 183 184 174 222 260 340 243 234 207 245 157 178 167 162 166 161 175 183 178 188 197 178 184 191 199 223 213 185 217 200 200 207 120 136 138 133 218 194 218 217 215 255 232 234 249 213 206 210 230
343 342 340 340 341 342 343 345 346 346 343 344 324 310 302 301 324 328 305 297 298 305 300 23 46 43 29 10 344 328 16 7 6 313 232 230 235 253 211 4 178 265 282 218 193 202 222 169 160 173 158 152 173 152 157 187 180 191 183 172 181 194 206 185 264 180 223 202 209 203 202 222 173 213 185 199 229 230 206 232 255 224 230 226 224 215 226
343 342 339 339 339 340 341 342 344 345 345 343 332 316 305 296 313 322 329 305 303 305 306 322 20 124 25 17 351 343 13 15 321 283 327 257 212 166 60 4 344 290 197 217 196 216 191 187 174 191 165 153 195 159 174 157 168 197 194 182 178 182 201 209 212 206 196 244 233 210 223 210 214 192 195 176 203 182 198 202 241 214 232 223 216 219 222
341 341 339 338 338 339 339 341 342 344 344 349 334 322 303 312 308 347 323 303 276 270 286 306 1 22 162 130 309 271 272 322 334 9 307 327 333 319 122 323 124 237 222 207 198 223 190 186 189 189 167 160 189 173 157 165 171 174 183 190 185 177 192 207 208 233 220 229 234 251 228 69 4 136 171 165 177 165 183 228 237 223 216 215 214 218 220
340 340 340 338 337 337 338 339 341 341 343 344 336 318 300 297 325 337 320 305 308 296 299 328 342 4 7 13 71 176 196 214 244 222 264 271 164 10 30 119 193 75 19 252 219 219 181 209 199 193 183 158 176 168 200 160 166 174 175 197 184 173 182 212 211 209 218 213 223 241 220 73 138 86 100 125 163 189 211 217 226 4 328 233 200 213 215
338 338 338 337 335 335 335 337 339 340 342 344 338 316 299 321 323 310 322 309 316 300 295 309 313 356 360 8 15 10 10 87 123 331 310 184 74 326 302 63 74 353 321 313 282 237 177 208 211 204 195 166 188 188 197 185 175 182 195 196 209 199 202 185 207 212 211 209 237 223 259 107 128 114 128 145 145 197 221 359 298 324 330 322 227 214 210
337 337 338 336 335 333 334 335 337 339 341 343 343 318 296 293 282 307 327 320 322 293 291 290 358 348 347 352 6 1 2 15 24 49 53 332 15 326 196 127 40 16 323 304 276 238 185 203 213 214 243 169 175 218 208 196 178 188 187 192 207 167 195 186 197 233 229 213 213 204 226 163 188 136 149 164 231 82 94 189 279 319 6 347 319 297 266
335 335 335 335 333 333 332 333 334 336 339 341 341 324 311 310 332 340 309 316 310 311 296 321 339 323 318 323 350 356 2 17 12 360 4 318 9 330 73 33 333 323 340 313 278 141 306 102 5 299 280 56 138 284 226 185 188 188 189 179 205 158 199 190 208 216 224 205 228 237 27 132 158 161 186 181 51 15 41 337 134 8 10 285 36 311 298
333 334 334 333 332 331 331 330 331 332 335 337 336 317 296 307 322 308 312 299 281 264 264 289 295 287 285 291 300 338 12 19 27 358 346 341 46 64 127 166 288 294 3 320 318 4 42 41 5 297 220 109 269 257 241 184 190 158 42 160 211 155 184 43 246 169 225 303 72 90 71 77 99 83 89 78 87 49 10 17 47 63 35 342 79 61 59
333 333 331 331 330 329 330 328 327 329 330 334 334 321 306 308 306 313 307 289 278 268 268 273 274 272 256 247 264 358 338 74 24 33 10 351 19 121 204 176 208 89 317 274 352 335 48 82 224 267 48 19 272 253 277 246 122 353 326 230 43 340 86 130 129 224 62 96 112 115 117 130 95 102 93 116 106 52 20 42 67 56 62 32 114 150 124
332 331 330 329 329 328 328 327 325 325 327 329 329 314 307 300 295 299 293 292 300 307 302 281 295 326 14 28 321 1 48 48 45 37 94 345 347 4 27 40 345 164 210 339 332 315 310 230 322 256 98 357 284 234 181 252 167 170 206 236 190 205 130 252 251 112 81 176 142 208 158 137 172 111 111 50 29 73 44 79 64 62 61 63 101 149 141
330 329 328 327 326 326 325 324 323 323 323 324 325 304 290 285 286 311 324 322 322 327 311 310 295 347 330 309 227 77 39 323 205 149 90 237 295 338 343 343 311 308 322 321 305 277 255 292 314 331 101 166 263 104 98 282 42 8 248 191 203 183 49 265 240 208 207 269 65 52 89 169 171 163 191 228 175 108 82 77 68 80 71 66 58 94 134
327 327 327 325 325 324 324 322 322 321 320 321 320 311 300 288 295 295 280 272 278 285 282 285 313 341 329 342 354 353 324 293 355 335 304 294 291 254 274 306 312 290 269 272 277 300 324 298 308 81 334 87 275 298 91 54 326 347 310 152 237 134 293 243 198 235 222 188 114 292 185 161 222 212 241 34 140 137 123 84 112 124 102 92 116 82 123
324 326 324 324 322 322 322 321 320 321 320 320 317 301 287 280 276 273 278 309 319 299 256 314 327 314 324 330 322 316 263 161 296 285 297 283 316 27 342 312 304 311 306 314 328 310 285 281 287 108 132 125 286 85 106 71 278 339 337 127 180 199 224 253 265 246 246 14 54 34 8 143 86 16 20 60 68 60 92 133 208 141 124 109 115 114 115
323 323 323 321 321 320 321 319 319 320 321 320 308 294 281 272 267 261 268 276 295 292 308 300 301 306 306 284 269 271 323 334 352 340 314 316 304 290 299 297 325 309 337 343 310 294 287 283 40 348 344 40 328 24 283 174 191 227 230 89 305 299 59 343 340 38 87 77 70 56 121 52 352 0 341 17 64 12 90 114 145 88 77 107 127 128 137
322 322 320 319 317 318 317 317 317 319 322 322 306 297 279 250 241 229 225 272 260 286 296 287 282 280 303 355 317 292 270 131 241 242 324 297 302 321 288 267 296 320 305 313 285 273 278 307 46 356 26 20 300 310 19 258 218 231 49 66 117 37 73 75 70 91 89 37 49 72 93 136 251 324 20 350 105 299 312 317 33 74 122 124 159 135 155
321 319 317 317 316 314 314 313 316 317 322 318 308 291 284 136 39 44 22 347 340 315 297 309 312 306 320 304 308 323 312 301 360 333 270 273 284 297 293 343 318 320 299 287 333 296 342 330 61 107 114 140 281 340 270 268 15 81 340 63 246 127 88 103 96 166 85 86 86 79 90 121 174 192 202 62 35 336 349 325 44 38 152 136 169 155 154
318 317 315 314 313 311 309 311 311 314 316 301 305 284 260 192 104 59 25 356 339 308 294 282 279 296 284 274 256 271 290 290 340 346 331 312 316 284 265 276 239 224 272 256 237 263 79 269 293 126 155 68 32 265 277 280 96 58 52 306 336 58 113 89 61 90 165 151 143 143 153 144 119 222 124 88 94 249 175 64 60 40 8 94 173 103 184
316 315 313 310 308 308 305 302 306 306 298 283 257 262 347 339 331 313 318 320 306 276 268 287 297 295 314 297 272 133 274 326 320 239 233 253 240 204 292 265 302 4 3 324 335 322 270 61 291 329 294 112 259 292 292 297 66 123 291 266 206 137 97 136 134 133 111 120 236 188 192 155 61 31 88 81 77 44 40 94 82 112 5 316 141 197 213
315 312 310 308 303 301 300 297 295 297 288 288 294 292 285 279 274 273 275 276 263 257 271 286 277 303 277 318 324 280 246 240 247 284 248 186 301 38 273 274 295 255 123 241 233 269 68 313 273 255 118 110 263 269 270 271 126 174 231 228 103 81 92 96 109 111 154 115 333 53 69 72 90 93 84 150 127 144 120 191 135 148 182 218 191 158 179
313 310 306 303 301 298 294 293 288 280 272 267 268 255 230 217 237 222 269 226 268 273 266 264 267 266 271 288 276 153 224 274 276 248 187 158 314 292 291 237 141 284 150 254 357 279 186 292 261 244 116 230 215 263 267 280 258 189 198 206 171 126 179 148 155 180 120 95 89 69 94 101 95 109 149 113 98 82 266 21 139 191 175 208 177 189 196
310 306 304 301 298 295 292 286 281 241 237 245 238 110 75 32 11 137 206 218 249 234 221 232 249 280 284 280 276 118 241 272 288 63 297 130 168 263 315 282 118 262 90 314 268 274 273 216 273 288 273 132 162 241 260 263 260 229 198 211 143 113 73 253 183 113 102 96 106 111 147 128 162 176 154 146 136 171 198 210 189 214 217 207 196 160 201
308 304 301 300 298 294 289 247 218 229 220 241 14 98 37 332 238 242 233 246 264 300 284 279 261 259 272 281 317 85 253 265 279 308 265 329 236 173 279 281 264 181 115 186 280 254 230 86 142 254 285 247 202 236 279 10 32 36 55 17 88 172 17 327 350 133 108 102 67 60 92 212 274 111 107 125 156 129 114 248 170 223 277 244 162 156 174
306 302 301 298 286 251 248 236 185 216 351 20 306 291 284 264 215 237 233 228 221 228 272 296 290 276 277 297 332 294 305 289 138 239 178 227 253 89 302 250 258 68 244 226 227 264 81 62 286 282 278 268 248 104 67 46 17 9 26 26 28 122 207 200 102 105 139 156 178 201 207 193 196 114 108 144 96 67 195 233 217 219 196 244 249 152 168
302 300 295 284 276 264 249 108 58 328 299 257 239 247 185 183 232 191 196 227 194 183 224 233 254 267 283 278 270 349 296 289 234 291 225 136 267 208 152 270 11 357 270 243 217 21 55 349 254 260 265 257 288 81 55 43 345 351 320 286 288 238 220 220 143 194 219 199 205 200 217 215 274 93 77 85 131 143 269 322 259 182 260 179 223 165 147
293 289 290 283 255 347 9 25 337 238 255 261 234 278 222 199 233 224 195 196 187 217 216 233 243 244 247 249 263 257 291 336 310 268 278 81 322 100 155 266 139 262 284 279 105 291 256 226 222 238 243 234 236 95 82 76 22 265 310 314 305 298 197 166 142 230 236 256 338 360 258 240 219 209 173 150 111 111 25 308 195 194 247 211 261 96 173
354 343 333 316 336 359 317 348 340 307 267 267 201 242 249 206 224 240 195 216 206 234 208 229 222 233 231 247 265 260 172 243 259 293 355 307 120 304 52 275 80 268 269 269 112 180 271 271 228 222 247 186 96 104 87 56 51 87 276 280 257 245 105 130 127 205 264 291 332 321 357 106 142 330 326 146 99 61 166 243 139 222 181 225 58 170 148
350 341 326 328 336 322 315 309 299 260 245 238 221 211 267 236 213 263 226 215 232 235 196 245 211 222 208 235 235 248 108 293 292 291 278 270 90 293 328 276 43 295 283 273 114 248 219 262 293 286 44 77 98 94 103 108 75 55 70 241 206 105 171 145 247 111 247 285 357 241 256 185 44 63 348 339 338 81 191 163 206 145 192 102 136 156 108
325 303 297 297 291 285 283 267 244 235 233 241 224 226 213 265 213 210 247 259 215 214 206 208 239 244 235 203 216 237 188 168 322 301 284 264 123 259 261 271 160 242 265 52 58 263 250 267 255 262 114 95 87 98 96 98 89 97 108 97 92 98 132 171 237 105 87 247 234 235 272 53 50 80 284 188 209 208 258 117 113 123 183 104 148 108 119
285 274 259 273 280 273 241 255 192 220 208 214 232 249 206 238 232 235 211 216 305 285 11 199 281 102 7 309 255 196 307 100 253 211 235 244 122 217 280 284 259 241 250 49 253 267 222 236 244 257 109 100 82 98 95 91 106 120 107 111 117 147 208 132 190 151 145 240 220 159 86 92 162 260 22 64 146 268 27 81 131 143 142 121 174 123 125
284 271 245 225 260 263 228 254 191 209 243 209 185 229 201 232 226 213 250 234 201 224 196 216 203 217 219 167 263 174 186 200 216 273 258 269 223 234 192 249 234 289 54 255 248 248 241 239 246 93 90 109 116 103 101 124 137 131 142 131 141 129 155 169 187 146 157 253 144 89 88 124 248 131 94 335 17 228 165 143 142 148 94 142 150 141 137
303 295 260 262 250 255 178 286 195 206 223 225 217 230 215 225 233 230 237 240 218 235 175 274 294 223 240 119 246 262 253 233 146 239 248 256 220 213 231 255 283 303 257 265 241 248 230 248 242 254 112 98 95 104 106 114 156 149 147 150 144 169 168 195 177 155 119 253 120 122 176 137 184 121 113 136 113 185 176 156 146 147 149 161 133 134 132
304 319 307 263 262 250 231 249 190 221 231 237 222 228 238 233 249 265 33 335 272 138 222 249 263 275 253 154 246 210 182 217 176 210 252 231 247 248 231 243 120 279 289 287 268 264 249 247 174 96 76 68 73 112 119 116 113 144 151 168 169 165 165 191 191 228 152 212 135 183 150 150 165 159 169 126 148 155 177 152 162 167 169 179 154 156 142
279 263 253 287 282 271 235 252 233 226 222 217 233 230 237 242 302 293 341 326 273 245 335 325 275 303 282 221 219 224 263 261 248 180 194 240 221 220 84 0 290 250 255 254 274 267 266 265 94 93 86 80 85 102 154 137 133 146 157 147 161 187 172 189 180 236 172 167 173 226 164 134 175 157 159 165 152 159 164 139 138 169 184 173 162 148 154
287 290 274 254 246 236 223 233 256 265 261 288 302 292 319 341 299 249 217 267 10 339 259 333 305 242 237 210 300 287 263 201 229 249 224 250 193 267 241 200 232 261 247 254 242 243 257 250 98 89 91 75 53 129 162 130 129 125 156 153 172 182 189 194 185 208 237 179 171 195 116 150 179 169 188 169 154 148 159 162 150 180 186 176 147 146 169
283 302 283 266 259 278 278 262 240 247 245 221 239 264 268 246 252 249 115 247 270 260 285 279 290 330 281 238 230 214 231 212 242 229 178 217 263 218 190 239 237 260 257 255 254 243 83 71 77 82 82 87 93 241 161 130 153 153 173 190 164 178 183 197 191 190 216 224 185 193 169 183 187 172 176 181 163 162 160 158 172 173 188 189 160 158 185
279 241 240 251 278 275 261 264 273 275 261 237 227 245 234 248 247 72 358 282 265 275 241 221 248 274 287 290 248 214 242 198 228 200 217 225 233 246 241 246 232 248 255 245 254 272 147 99 91 93 87 84 65 348 56 142 103 192 163 179 154 179 180 188 182 185 196 220 206 210 168 159 222 184 181 171 164 154 163 169 178 175 190 201 184 166 183
225 249 255 254 260 275 311 302 279 259 263 261 232 246 237 232 109 80 17 333 306 271 252 246 206 217 240 230 264 239 219 225 251 242 231 220 198 222 224 240 248 255 263 292 313 35 36 44 69 80 86 101 75 44 39 48 147 182 176 199 172 177 162 169 185 176 185 203 209 204 210 180 200 198 184 171 166 162 164 149 200 196 201 199 200 189 190
244 237 255 256 249 250 252 263 282 287 308 326 287 66 34 347 343 29 49 321 283 263 249 235 240 218 212 234 220 255 321 233 238 235 227 238 231 247 235 252 270 278 296 281 270 330 85 66 59 45 51 37 52 41 41 359 14 297 180 179 176 184 163 169 182 178 187 193 196 192 217 208 184 223 188 167 181 172 186 169 181 200 214 204 198 202 202